Meath Environmental Platform

Observations for Trim Market St

Time AQI Temp °C Hum % Pres Pa CO μg/m³ H₂S μg/m³ NO μg/m³ NO₂ μg/m³ O₃ μg/m³ SO₂ μg/m³ PM1 μg/m³ PM2.5 μg/m³ PM10 μg/m³
Tuesday 18 August 2026
05:34 2 17.5 76 26,861 0.11 0 1.9 7.19 78.83 0 0.71 2.29 5.17
05:25 2 17.5 76 29,758 0.09 0 1.89 5.35 69.77 0 1.43 2.79 5.16
05:24 2 17.6 76 29,937 0.09 0 1.89 5.98 71.51 0 1.43 2.79 5.16
05:23 2 17.5 76 30,160 0.1 0 1.89 6.39 72.42 0 0.71 2.31 5.75
05:22 2 17.6 76 30,398 0.09 0 1.89 5.26 68.17 0 0.71 2.31 5.16
05:21 2 17.6 76 30,670 0.09 0 1.89 6.34 69.04 0 0.71 2.79 5.16
05:20 2 17.6 76 30,993 0.1 0 1.89 5.43 69.01 0 1.43 2.79 5.16
05:19 2 17.6 76 31,202 0.1 0 1.89 6 75.58 0 1.43 3.75 7.53
05:18 2 17.6 76 31,413 0.09 0 1.9 4.92 68.86 0 0.71 1.84 3.97
05:17 2 17.6 76 31,604 0.09 0 1.89 5.35 65.86 0 0.71 2.32 5.15
05:16 2 17.6 76 31,881 0.09 0 1.89 4.92 64.75 0 0 1.84 4.56
05:15 2 17.6 75 32,133 0.14 0 1.88 7.09 76.94 0 0.71 2.32 6.34
05:14 2 17.6 75 32,338 0.42 0 1.87 6.55 76.91 0 0.71 3.28 5.75
05:13 2 17.6 75 32,513 0.17 0 1.88 5.83 64.23 0 0 1.85 3.96
05:12 2 17.6 75 32,749 0.1 0 1.85 4.86 71.67 0 0.71 2.33 5.74
05:10 2 17.6 75 32,974 0.1 0 1.89 7.56 80.35 0 0.71 2.33 5.74
05:09 2 17.6 75 33,287 0.09 0 1.89 5.39 69.36 0 1.43 2.81 5.15
05:07 2 17.7 75 33,954 0.09 0 1.87 5.28 69.31 0 0.71 2.34 5.14
05:06 2 17.7 75 34,356 0.08 0 1.88 5.83 70.73 0 0.71 2.34 4.55
05:05 2 17.7 75 34,793 0.1 0 1.87 5.94 75.78 0 0.71 3.3 5.74